Bellmunt





Hora UTC 04:20
Temperatura 8.7 ºC
Humitat 81.0 %
Pressió 1017.2 hPa
Pluja 0.0 mm
Velocitat vent 19.3 km/h
Direcció vent WSW

Dades diàries 2020-09-29



Hora UTC (hivern +1h; estiu +2h)
Temperatura (ºC) Humitat (%) Pressió (hPa) Velocitat vent (km/h) Precipitació (mm)
Hora UTC Aire Humitat Pressió Vel. Dir. Vel. Max Dir. Intent. màx 5 min.
00:05 10.1 77.0 1018.1 16.1 WSW 16.1 0.0
00:10 10.0 78.0 1018.0 16.1 W 19.3 0.0
00:15 10.0 76.0 1018.1 14.5 W 19.3 0.0
00:20 10.1 76.0 1018.1 11.3 W 19.3 0.0
00:25 10.0 77.0 1018.1 14.5 W 17.7 0.0
00:30 9.9 77.0 1018.1 14.5 W 19.3 0.0
00:35 10.0 75.0 1017.8 16.1 W 19.3 0.0
00:40 10.0 77.0 1017.9 14.5 W 19.3 0.0
00:45 9.9 77.0 1017.9 14.5 W 17.7 0.0
00:50 9.9 75.0 1017.7 14.5 W 17.7 0.0
00:55 9.9 75.0 1017.8 16.1 W 16.1 0.0
01:00 9.9 75.0 1017.8 16.1 W 20.9 0.0
01:05 9.9 76.0 1017.8 12.9 W 20.9 0.0
01:10 9.8 74.0 1017.7 16.1 W 16.1 0.0
01:15 10.0 74.0 1017.7 19.3 WSW 20.9 0.0
01:20 10.1 74.0 1017.8 16.1 W 20.9 0.0
01:25 10.1 74.0 1017.7 14.5 W 19.3 0.0
01:30 9.9 74.0 1017.7 16.1 WSW 16.1 0.0
01:35 9.9 74.0 1017.7 16.1 WSW 17.7 0.0
01:40 9.9 74.0 1017.7 12.9 WSW 17.7 0.0
01:45 9.8 74.0 1017.6 12.9 WSW 17.7 0.0
01:50 9.9 74.0 1017.6 11.3 W 17.7 0.0
01:55 9.8 76.0 1017.4 14.5 WSW 17.7 0.0
02:00 9.8 74.0 1017.4 9.7 W 16.1 0.0
02:05 9.7 77.0 1017.5 14.5 WSW 17.7 0.0
02:10 9.6 76.0 1017.6 19.3 WSW 20.9 0.0
02:15 9.7 76.0 1017.6 12.9 W 22.5 0.0
02:20 9.3 80.0 1017.4 8.0 WSW 19.3 0.0
02:25 9.2 76.0 1017.5 11.3 WSW 16.1 0.0
02:30 9.3 77.0 1017.5 6.4 WSW 16.1 0.0
02:35 9.2 77.0 1017.4 16.1 WSW 22.5 0.0
02:40 9.3 76.0 1017.4 27.4 WSW 30.6 0.0
02:45 9.4 75.0 1017.3 22.5 WSW 30.6 0.0
02:50 9.2 76.0 1017.3 17.7 WSW 29.0 0.0
02:55 9.2 76.0 1017.2 25.7 WSW 27.4 0.0
03:00 9.2 75.0 1017.3 27.4 WSW 30.6 0.0
03:05 9.2 75.0 1017.2 27.4 WSW 32.2 0.0
03:10 9.3 85.0 1017.3 32.2 WSW 32.2 0.0
03:15 9.2 83.0 1017.2 29.0 WSW 33.8 0.0
03:20 9.1 86.0 1017.1 30.6 WSW 35.4 0.0
03:25 8.9 87.0 1017.1 33.8 WSW 35.4 0.0
03:30 8.8 88.0 1017.1 30.6 WSW 35.4 0.0
03:35 8.8 87.0 1017.1 30.6 WSW 33.8 0.0
03:40 8.8 86.0 1017.1 24.1 WSW 33.8 0.0
03:45 8.8 83.0 1017.0 27.4 WSW 33.8 0.0
03:50 8.9 83.0 1017.1 22.5 WSW 29.0 0.0
03:55 8.9 80.0 1017.1 22.5 W 32.2 0.0
04:00 9.0 82.0 1017.1 17.7 WSW 32.2 0.0
04:05 8.7 80.0 1017.1 22.5 WSW 32.2 0.0
04:10 8.8 80.0 1017.2 22.5 WSW 32.2 0.0
04:15 8.7 81.0 1017.1 27.4 WSW 32.2 0.0
04:20 8.7 81.0 1017.2 19.3 WSW 30.6 0.0
Màxima 10.9 88.0 1018.1 33.8 WSW 35.4 0.0
Mínima 8.6 74.0 1017.0
Total 0.0